STARLINK-11144, 59955

Orbit data source: Space-Track

STARLINK-11144, 59955 is a payload satellite owned by SpaceX/Seattle (US) in LEO that was launched on Wed, 05 Jun 2024 UTC via an FALCON 9 launch vehicle from the Air Force Eastern Test Range (AFETR). Payload-class satellites include a variety of spacecraft equipped with specific instruments for various scientific and technological missions. These include communications satellites like Starlink; space stations such as the ISS; scientific satellites like the Hubble; Earth observation satellites from companies like Planet Labs, Umbra, and HawkEye 360; GPS; miniature CubeSats for education and research; and military/defense satellites.

Loading next visibility...
Identifier
59955, 2024-107L
Orbit
LEO
Last TLE update
10 hours ago
Origin
Manufacturer
SpaceX/Seattle
Mission
Operational spacecraft
Bus & Motor
STARLINK V2M, Unknown motor
Mass
730 kg wet, ~700 kg dry
Launch date (UTC)
2024-06-05 (1 year ago)
Launch vehicle
FALCON 9
Launch site
Air Force Eastern Test Range (AFETR)
Object type
Payload
Rocket body
Debris
Shape & HBR
Unknown
Radar Cross Section
Large (>1 m²)

Expand to show TLE details & history

TLE from 10 hours ago
0 STARLINK-11144
1 59955U 24107L   25182.03656808 -.00001343  00000-0 -62353-5 0  9998
2 59955  53.1607  51.6309 0000785  77.5699 282.5407 15.69706070 62685
Epoch: 2025-07-01T00:52Z
TLE epoch observation values (Epoch: 2025-07-01T00:52:39.482Z)
Latitude
0.00002°
Longitude
119.12862°
Altitude
360.538 km
Speed
7.694 km/s
True Right ascension
03h 26m 31s
True Declination
0° 00' 00"
Sunlit
Object was in daylight at epoch
Visualization orbit readout
Latitude
49.77802°
Longitude
-124.59524°
Altitude
365.03 km
Speed
7.697 km/s
Apparent Right ascension
10h 38m 18s
Apparent Declination
6° 33' 31"
Sunlit
Object is in daylight
Visualization observer readout
Local Sidereal Time
22:08:39
Azimuth
349.902° N
Elevation
-43.024°
Doppler factor
1
Orbital elements
Apogee altitude
360.528 km
Perigee altitude
359.47 km
Semi-major axis
6,738.136 km
Eccentricity
0.00008
Inclination
53.1607°
RAAN
51.6309°
Arg. of periapsis
77.5699°
True anomaly
Unknown
Mean anomaly
282.5407°
Eccentric anomaly
Unknown
Mean motion
3.92404 °/min
Orbital period
91.74 mins
BSTAR
-0.0000062353
Loading maneuver chart data...
Loading SW <> Apogee altitude chart data...
Loading historical data...
Loading historical data...
Loading historical data...
Loading historical data...
Loading historical data...
Loading historical data...
Loading historical data...

STARLINK-11144 Visibility forecast

Observer location: undefined°, undefined°

Span
Click to sort rows by Start time (UTC) header in descending order
Start Az.
Max El. time (UTC)
Max El. Az.
Max El.
End time (UTC)
End Az.
4 mins2025-07-01 17:52:11.768Z214.932° SW2025-07-01 17:54:11.768Z140.474° SSE41.282°2025-07-01 17:56:11.768Z59.985° ENE
4 mins2025-07-02 00:17:11.768Z334.367° NNW2025-07-02 00:19:11.768Z51.674° ENE31.098°2025-07-02 00:21:11.768Z102.246° ESE
|